Погода в Кундравах

Россия / Челябинская область     54°50′10″N   60°13′18″E
темп.,
°C
ветер,
м/с
пор.,
м/с
влажн.,
%
обл.,
%
осадки,
мм/ч
давл.,
гПа
погр.,
м
12 апреля, пн
пн1223:00+2юз229357 0.0 103522
02:00+3юз229090 0.0 103410
05:00+4зюз118758 0.0 103510
08:00+6сз1184100 0.0 103510
11:00+11с227379 0.0 1034242
14:00+14ссв346786 0.0 1034933
17:00+12св448498 0.0 1036443
20:00+8св3792100 0.2 1038311
13 апреля, вт
вт1323:00+7ссв2591100 0.2 1039159
02:00+5св2290100 0.0 104019
05:00+3св229215 0.0 104214
08:00+5всв11905 0.0 104298
11:00+8ююв23756 0.0 1041590
14:00+12ю34615 0.0 1040828
17:00+12ююз34565 0.0 1038855
20:00+9ююз34724 0.0 103845
14 апреля, ср
ср1423:00+7ююз36775 0.0 103792
02:00+6ююз368435 0.0 1036104
05:00+5юз338661 0.0 103643
08:00+7зюз228124 0.0 103582
11:00+12зюз116610 0.0 1033309
14:00+15ююз225860 0.0 1031803
17:00+16юз235727 0.0 1030884
20:00+12ююз337163 0.0 102926
15 апреля, чт
чт1523:00+10юз226958 0.0 102917
02:00+8юз226741 0.0 102810
05:00+7зюз11675 0.0 102710
08:00+9зюз11645 0.0 102654
11:00+14зюз22566 0.0 1024332
14:00+17юз22515 0.0 1022840
17:00+18ююз22475 0.0 1020889
20:00+14юз22535 0.0 101912
16 апреля, пт
пт1623:00+11сз115522 0.0 101910
02:00+9ссз226155 0.0 101813
05:00+8сз226454 0.0 101710
08:00+9зсз126178 0.0 101643
11:00+14з2247100 0.0 1014401
14:00+16юз3436100 0.0 10121348
17:00+17ююз343566 0.0 10101012
20:00+12юз225537 0.0 100914